This is the latest recevied weather packets stored in our database for station/object K2YYD-2. If no packets are shown the sender has not sent any weather packets the latest 10 day(s).
| Time | Temp. | Humidity | Pressure | Rain* | Wind** | Luminosity | Snow |
|---|---|---|---|---|---|---|---|
| 1777523567 | 8.33° C | 97% | 1005.7 hPa | 4.32 mm | - | 0 W/m² | - |
| 1777523447 | 8.33° C | 97% | 1005.7 hPa | 4.32 mm | - | 0 W/m² | - |
| 1777523324 | 8.33° C | 97% | 1005.6 hPa | 4.32 mm | - | 0 W/m² | - |
| 1777523204 | 8.33° C | 97% | 1005.5 hPa | 4.32 mm | - | 0 W/m² | - |
| 1777523085 | 8.33° C | 97% | 1005.5 hPa | 4.32 mm | - | 0 W/m² | - |
| 1777522965 | 8.33° C | 97% | 1005.5 hPa | 4.32 mm | - | 0 W/m² | - |
| 1777522844 | 8.33° C | 97% | 1005.5 hPa | 4.32 mm | - | 0 W/m² | - |
| 1777522725 | 8.33° C | 97% | 1005.5 hPa | 4.06 mm | - | 0 W/m² | - |
| 1777522601 | 8.33° C | 97% | 1005.4 hPa | 4.06 mm | - | 0 W/m² | - |
| 1777522481 | 8.33° C | 97% | 1005.4 hPa | 3.81 mm | - | 0 W/m² | - |
| 1777522361 | 8.33° C | 97% | 1005.5 hPa | 3.81 mm | - | 0 W/m² | - |
| 1777522242 | 8.33° C | 97% | 1005.6 hPa | 3.56 mm | - | 0 W/m² | - |
| 1777522121 | 8.33° C | 97% | 1005.8 hPa | 3.56 mm | - | 0 W/m² | - |
| 1777522001 | 8.33° C | 97% | 1005.9 hPa | 3.3 mm | - | 0 W/m² | - |
| 1777521882 | 8.33° C | 97% | 1006 hPa | 3.3 mm | - | 0 W/m² | - |
| 1777521762 | 8.33° C | 97% | 1006.2 hPa | 3.05 mm | - | 0 W/m² | - |
| 1777521641 | 8.89° C | 97% | 1006.2 hPa | 3.05 mm | - | 0 W/m² | - |
| 1777521521 | 8.89° C | 97% | 1006.3 hPa | 3.05 mm | - | 0 W/m² | - |
| 1777521401 | 8.89° C | 97% | 1006.3 hPa | 3.05 mm | - | 0 W/m² | - |
| 1777521282 | 8.89° C | 96% | 1006.4 hPa | 2.79 mm | - | 0 W/m² | - |
| 1777521162 | 8.89° C | 96% | 1006.5 hPa | 2.79 mm | - | 0 W/m² | - |
| 1777521041 | 8.89° C | 96% | 1006.6 hPa | 2.79 mm | - | 0 W/m² | - |
| 1777520922 | 8.89° C | 96% | 1006.7 hPa | 2.54 mm | - | 0 W/m² | - |
| 1777520802 | 8.89° C | 96% | 1006.8 hPa | 2.54 mm | - | 0 W/m² | - |
| 1777520681 | 8.89° C | 96% | 1006.8 hPa | 2.29 mm | - | 0 W/m² | - |
* Rain latest hour (hover to see other rain measurements)
** Current wind speed in m/s (hover to see current wind gust speed)